Regional Weather Roundup
Issued by NWS

Home | Current Version | Previous Version | Graphics & Text | Print | Product List | Glossary On
Versions: 1 2 3 4 5 6 7 8 9 10 11 12 13 14 15 16 17 18 19 20 21 22 23 24 25 26 27 28 29 30 31 32 33 34 35 36 37 38 39 40 41 42 43 44 45 46 47 48 49 50
000
ASUS43 KOAX 222202
RWRNE

WEATHER ROUNDUP FOR NEBRASKA
NATIONAL WEATHER SERVICE OMAHA NE
500 PM CDT SUN APR 22 2018

NOTES: SATELLITE DATA IS BEING USED TO AUGMENT CLOUD COVER ABOVE
       12000 FEET.
       "FAIR" INDICATES FEW OR NO CLOUDS BELOW 12,000 FEET WITH NO
       SIGNIFICANT WEATHER AND/OR OBSTRUCTIONS TO VISIBILITY.


NEZ001>004-019>022-054>056-222300-
NEBRASKA PANHANDLE

CITY           SKY/WX    TMP DP  RH WIND       PRES   REMARKS
SCOTTSBLUFF    SUNNY     62  41  46 MISG      30.10F
ALLIANCE       SUNNY     60  40  47 SE7       30.09F
CHADRON        SUNNY     65  38  36 SE8       30.06F
GORDON         FAIR      61  38  42 SW6       30.10F
KIMBALL        SUNNY     61  33  34 CALM      30.12F
SIDNEY         PTSUNNY   58  32  37 VRB3      30.13F
$$

NEZ057>060-069>072-079>082-222300-
SOUTHWEST NEBRASKA

CITY           SKY/WX    TMP DP  RH WIND       PRES   REMARKS
NORTH PLATTE   CLOUDY    57  39  51 S7        30.17F
IMPERIAL       MOSUNNY   55  36  48 SW6       30.17F
LEXINGTON      MOSUNNY   60  38  45 CALM      30.17F
MCCOOK         MOSUNNY   58  39  49 CALM      30.16F
OGALLALA       SUNNY     55  38  52 SE3       30.17F
$$

NEZ005>010-023>029-035>040-094-222300-
NORTH CENTRAL NEBRASKA

CITY           SKY/WX    TMP DP  RH WIND       PRES   REMARKS
VALENTINE      MOSUNNY   61  37  41 S16       30.14F
AINSWORTH      PTSUNNY   59  39  47 S10G16    30.16F
BROKEN BOW     MOSUNNY   60  40  47 SW7       30.16F
O`NEILL        SUNNY     65  30  27 S7        30.17F
ORD            SUNNY     63  32  31 E6        30.15F
$$

NEZ041-046>049-061>064-073>077-083>087-222300-
SOUTH CENTRAL NEBRASKA

CITY           SKY/WX    TMP DP  RH WIND       PRES   REMARKS
GRAND ISLAND   SUNNY     65  36  34 E9        30.15F
AURORA         MOSUNNY   66  32  28 E7        30.15S
HASTINGS       MOSUNNY   65  37  35 NE8       30.15F
HEBRON         CLOUDY    61  35  38 E9        30.15S
HOLDREGE       MOSUNNY   60  38  45 E5        30.16S
KEARNEY        SUNNY     61  37  41 N6        30.16F
YORK             N/A     64  32  29 E9G17     30.15S
$$

NEZ011>018-030>034-042>045-222300-
NORTHEAST NEBRASKA

CITY           SKY/WX    TMP DP  RH WIND       PRES   REMARKS
NORFOLK        SUNNY     65  31  28 E9G20     30.15F
ALBION         SUNNY     66  32  28 SE7G17    30.16F
BLAIR          CLOUDY    68  33  26 NE12G18   30.14F
COLUMBUS       SUNNY     67  34  29 SE10      30.15F
FREMONT        CLOUDY    69  32  26 NE5G10    30.15F
TEKAMAH        CLOUDY    68  30  24 E10G18    30.15F
WAYNE          SUNNY     67  30  25 E12       30.17S
$$

NEZ050>053-065>068-078-088>093-222300-
SOUTHEAST NEBRASKA

CITY           SKY/WX    TMP DP  RH WIND       PRES   REMARKS
LINCOLN        CLOUDY    67  33  28 NE12      30.15F
OMAHA EPPLEY   PTSUNNY   69  32  25 E8        30.14F
BEATRICE       CLOUDY    65  37  34 E8        30.13F
FALLS CITY     PTSUNNY   69  38  32 NE13G21   30.08F
NEBRASKA CITY  CLOUDY    69  37  30 E8        30.11F
$$

NEZ044-045-051>053-067-222300-
OMAHA AREA

CITY           SKY/WX    TMP DP  RH WIND       PRES   REMARKS
OMAHA EPPLEY   PTSUNNY   69  32  25 E8        30.14F
BLAIR          CLOUDY    68  33  26 NE12G18   30.14F
FREMONT        CLOUDY    69  32  26 NE5G10    30.15F
MILLARD        PTSUNNY   70  35  27 NE6       30.14F
OFFUTT AFB     MOSUNNY   70  33  26 NE10      30.13F
WAHOO          CLOUDY    69  26  20 E13G22    30.14F
$$



USA.gov is the U.S. government's official web portal to all federal, state and local government web resources and services.